Regional Weather Roundup
Issued by NWS

Home | Current Version | Previous Version | Text Only | Print | Product List | Glossary Off
Versions: 1 2 3 4 5 6 7 8 9 10 11 12 13 14 15 16 17 18 19 20 21 22 23 24 25 26 27 28 29 30 31 32 33 34 35 36 37 38 39 40 41 42 43 44 45 46 47 48 49 50

000
ASUS45 KABQ 282310
RWRNM
WEATHER ROUNDUP FOR NEW MEXICO
NATIONAL WEATHER SERVICE ALBUQUERQUE NM
500 PM MDT MON JUL 28 2014

NOTE: "FAIR" MEANS FEW OR NO CLOUDS BELOW 12,000 FEET AGL WITH NO
       SIGNIFICANT WEATHER OR OBSTRUCTIONS TO VISION.

      THIS PRODUCT IS RELEASED AS TWO VERSIONS.  ONE VERSION NEAR
      THE TOP OF THE HOUR CONTAINING PRELIMINARY DATA FROM ALBUQUERQUE
      AND OTHER STATIONS.  A FINAL VERSION WITH ADDITIONAL DATA IS
      ISSUED ABOUT 10 MINUTES AFTER THE HOUR.

NMZ501-503-504-510>518-290000-
NORTHWEST PLATEAU/NORTHCENTRAL MOUNTAINS

CITY           SKY/WX    TMP DP  RH WIND       PRES   REMARKS
FARMINGTON     RAIN      77  57  50 SE8G25    30.25F
LOS ALAMOS     PTSUNNY   75  48  38 S9        30.43F
SANTA FE       MOSUNNY   80  48  32 S10       30.35F
TAOS           CLOUDY    72  50  46 SW17      30.43S
ANGEL FIRE     MOCLDY    65  53  65 S13       30.53F

$$
NMZ402-403-502-505>509-290000-
WESTCENTRAL MOUNTAINS/SOUTHWEST MOUNTAINS

CITY           SKY/WX    TMP DP  RH WIND       PRES   REMARKS
GALLUP         LGT RAIN  69  56  62 N7G16     30.35F
SILVER CITY    CLOUDY    77  55  47 NW25      30.31S

$$
NMZ407-409-411-412-290000-
SOUTHERN DESERTS

CITY           SKY/WX    TMP DP  RH WIND       PRES   REMARKS
LORDSBURG      FAIR      86  55  35 NW8       30.19S
DEMING         PTSUNNY   89  54  30 VRB3      30.18F
LAS CRUCES     PTSUNNY   88  54  30 E6G16     30.20F
HOLLOMAN AFB   MOSUNNY   87  59  38 NW8       30.18F
ALAMOGORDO     MOSUNNY   90  57  33 NE13G20   30.21F
T OR C         MOSUNNY   87  53  31 S13       30.23F

$$
NMZ519>523-290000-
CENTRAL VALLEYS/CENTRAL HIGHLANDS

CITY           SKY/WX    TMP DP  RH WIND       PRES   REMARKS
ALBUQUERQUE    PTSUNNY   85  50  29 SW13      30.28F
DOUBLE EAGLE   PTSUNNY   84  48  28 SE17G24   30.33F
MORIARTY ARPT  MOCLDY    83  49  30 S12G17    30.37S
CLINES CORNERS CLOUDY    73  52  47 S9        30.42F
BELEN          FAIR      85  50  30 S16G23    30.28S
SOCORRO        PTSUNNY   88  48  25 SE14G22   30.24S

$$
NMZ524>526-539-540-290000-
SOUTHCENTRAL MOUNTAINS

CITY           SKY/WX    TMP DP  RH WIND       PRES   REMARKS
RUIDOSO        CLOUDY    63  59  88 SW12      30.45F

$$
NMZ527>531-290000-
NORTHEAST HIGHLANDS/NORTHEAST PLAINS

CITY           SKY/WX    TMP DP  RH WIND       PRES   REMARKS
LAS VEGAS      MOSUNNY   75  55  49 S15G25    30.42F
RATON          CLOUDY    70  61  73 S14       30.38F
CLAYTON        PTSUNNY   71  61  70 SE13      30.34F

$$
NMZ532>537-290000-
EASTCENTRAL PLAINS

CITY           SKY/WX    TMP DP  RH WIND       PRES   REMARKS
TUCUMCARI      MOSUNNY   82  62  50 SE15      30.26R
CANNON AFB     PTSUNNY   83  63  50 E15G26    30.27F
CLOVIS AIRPORT NOT AVBL

$$
NMZ028-029-538-290000-
SOUTHEAST PLAINS

CITY           SKY/WX    TMP DP  RH WIND       PRES   REMARKS
ROSWELL        PTSUNNY   91  56  30 SE7G21    30.17F
ARTESIA        MOSUNNY   91  55  29 SE14      30.16F
CARLSBAD       PTSUNNY   97  53  22 E15G22    30.11F
HOBBS          MOSUNNY   90  57  33 E18G24    30.20F


$$


USA.gov is the U.S. government's official web portal to all federal, state and local government web resources and services.